CHINASAT 1C (ZX 1C)

Last updated on Mon Sep 11 2023 00:02:40 GMT+0000 (Coordinated Universal Time)

1 41103U 15073A 23253.15962000 .00000070 00000+0 00000+0 0 9998 2 41103 4.5177 80.4240 0004849 125.1248 268.9374 0.99164783 28524
UTC large
Height (km)
Speed (km/s)
/
Latitude / Longitude
Inclination (degrees)
Orbital Period (minutes)
Azimuth
Elevation
Range (km)
Doppler Factor

Next 0 passes for location: London (51.5072 / 0.1276)

Sorry there are no passes over London.
CHINASAT 1C (ZX 1C)